Location: ??
(35.4627°N, 139.3695°E)
Time: 05:52:27
(UTC+00:00)

OAO 3 Rocket - Pass Details

Date: 25 November 2020
Orbit: 629 x 682 km, 35.0° (Epoch: 20 January)

Event Time Altitude Azimuth Distance (km) Brightness Sun altitude
Exits shadow 20:13:55 22° 261° (W) 1,364 4.3 -15.1°
Maximum altitude 20:16:31 46° 200° (SSW) 858 3.7 -14.6°
Drops below altitude 10° 20:21:01 10° 127° (SE) 2,026 6.9 -13.7°
Sets 20:23:27 0° 121° (ESE) 2,943 8.2 -13.2°
